Weather History for KFAR - October, 2013

Change the Weather History Date:

Tuesday, October 8, 2013

  Actual Average Record
Temperature  
Mean Temperature 61 °F 49 °F  
Max Temperature 75 °F 60 °F 86 °F (2003)
Min Temperature 47 °F 38 °F 16 °F (1917)
Degree Days  
Heating Degree Days 4 16  
Month to date heating degree days 94 116  
Since 1 July heating degree days 219 386  
Cooling Degree Days 0 0  
Month to date cooling degree days 0 0  
Year to date cooling degree days 699 548  
Growing Degree Days 14 (Base 50)    
Moisture  
Dew Point 46 °F    
Average Humidity 62    
Maximum Humidity 86    
Minimum Humidity 38    
Precipitation  
Precipitation 0.00 in 0.07 in 0.98 in (1997)
Month to date precipitation 1.40 0.65  
Year to date precipitation 27.71 19.28  
Snow  
Snow 0.00 in 0.00 in 0.70 in (1927)
Month to date snowfall 0.0 0.0  
Since 1 July snowfall 0.0 0.0  
Since 1 September snowfall 0.0 0.0  
Snow Depth 0.00 in    
Sea Level Pressure  
Sea Level Pressure 29.67 in    
Wind  
Wind Speed 10 mph (South)    
Max Wind Speed 20 mph    
Max Gust Speed 28 mph    
Visibility 10 miles    
Events      
T = Trace of Precipitation, MM = Missing Value Source: NWS Daily Summary

Daily Weather History Graph

Daily Weather History Graph

Search for Another Location

Airport or City:

Trip Planner

Search our weather history database for the weather conditions in past years. The results will help you decide how hot, cold, wet, or windy it might be!

Date:

Astronomy

Oct. 08, 2013 Rise Set
Actual Time 7:35 AM CDT 6:52 PM CDT
Civil Twilight 7:05 AM CDT 7:23 PM CDT
Nautical Twilight 6:30 AM CDT 7:58 PM CDT
Astronomical Twilight 5:54 AM CDT 8:33 PM CDT
Moon 11:45 AM CDT (10/8) 9:15 PM CDT (10/8)
Length of Visible Light 12h 17m
Length of Day
11h 16m
Waxing Crescent, 16% of the Moon is Illuminated
Oct 8
Waxing Crescent
Oct 11
First Quarter
Oct 18
Full
Oct 26
Last Quarter
Nov 3
New

Hourly Weather History & Observations

Time (CDT) Temp. Dew Point Humidity Pressure Visibility Wind Dir Wind Speed Gust Speed Precip Events Conditions
12:53 AM 55.0 °F 39.9 °F 57% 29.78 in 10.0 mi SSE 16.1 mph 21.9 mph N/A   Clear
1:53 AM 54.0 °F 41.0 °F 62% 29.76 in 10.0 mi SSE 15.0 mph 20.7 mph N/A   Clear
2:53 AM 54.0 °F 42.1 °F 64% 29.73 in 10.0 mi SSE 15.0 mph 21.9 mph N/A   Clear
3:53 AM 54.0 °F 42.1 °F 64% 29.70 in 10.0 mi SSE 13.8 mph - N/A   Clear
4:53 AM 55.9 °F 42.1 °F 60% 29.67 in 10.0 mi SSE 16.1 mph - N/A   Clear
5:53 AM 55.9 °F 43.0 °F 62% 29.64 in 10.0 mi SSE 16.1 mph 25.3 mph N/A   Clear
6:53 AM 55.0 °F 43.0 °F 64% 29.63 in 10.0 mi SSE 12.7 mph 23.0 mph N/A   Clear
7:53 AM 55.0 °F 43.0 °F 64% 29.62 in 10.0 mi SSE 11.5 mph - N/A   Clear
8:53 AM 55.9 °F 43.0 °F 62% 29.62 in 10.0 mi SSE 17.3 mph 21.9 mph N/A   Clear
9:53 AM 59.0 °F 45.0 °F 60% 29.62 in 10.0 mi South 10.4 mph - N/A   Clear
10:53 AM 64.0 °F 46.0 °F 52% 29.62 in 10.0 mi South 15.0 mph - N/A   Clear
11:53 AM 66.9 °F 46.9 °F 49% 29.61 in 10.0 mi South 17.3 mph - N/A   Clear
12:53 PM 71.1 °F 48.0 °F 44% 29.61 in 10.0 mi SSW 11.5 mph - N/A   Clear
1:53 PM 73.0 °F 46.9 °F 39% 29.60 in 10.0 mi SSW 16.1 mph - N/A   Clear
2:53 PM 73.9 °F 46.0 °F 37% 29.60 in 10.0 mi SSW 10.4 mph - N/A   Clear
3:53 PM 73.0 °F 48.0 °F 41% 29.62 in 10.0 mi SW 9.2 mph - N/A   Clear
4:53 PM 71.1 °F 50.0 °F 47% 29.63 in 10.0 mi SW 6.9 mph - N/A   Clear
5:53 PM 72.0 °F 50.0 °F 46% 29.65 in 10.0 mi SSW 9.2 mph - N/A   Clear
6:53 PM 66.0 °F 48.9 °F 54% 29.67 in 10.0 mi SSW 3.5 mph - N/A   Clear
7:53 PM 59.0 °F 48.9 °F 69% 29.69 in 10.0 mi Calm Calm - N/A   Clear
8:53 PM 55.9 °F 50.0 °F 80% 29.70 in 10.0 mi Calm Calm - N/A   Clear
9:53 PM 54.0 °F 48.0 °F 80% 29.73 in 10.0 mi SW 3.5 mph - N/A   Clear
10:53 PM 53.1 °F 48.0 °F 83% 29.75 in 10.0 mi Calm Calm - N/A   Clear
11:53 PM 48.0 °F 44.1 °F 86% 29.76 in 10.0 mi Calm Calm - N/A   Clear